| time (UTC) | temp F | wind direction | speed MPH | gust MPH | rain 1hr in | rain 24hr in | rain mn in | humidity % | barometer mb |
| 20260509171528 | 53 | 74 | 1.0 | 3.0 | 0.00 | 0.04 | 0.04 | 79 | 1013.4 |
| 20260509171048 | 53 | 84 | 1.0 | 4.0 | 0.00 | 0.04 | 0.04 | 80 | 1013.5 |
| 20260509170528 | 53 | 90 | 2.0 | 6.0 | 0.00 | 0.04 | 0.04 | 78 | 1013.6 |
| 20260509170028 | 53 | 109 | 1.0 | 6.0 | 0.00 | 0.04 | 0.04 | 77 | 1013.7 |
| 20260509165527 | 53 | 94 | 1.0 | 2.0 | 0.00 | 0.04 | 0.04 | 77 | 1013.5 |
| 20260509165027 | 53 | 75 | 1.0 | 6.0 | 0.00 | 0.04 | 0.04 | 77 | 1013.6 |
| 20260509164527 | 53 | 87 | 1.0 | 3.0 | 0.00 | 0.04 | 0.04 | 76 | 1013.7 |
| 20260509164027 | 53 | 93 | 1.0 | 3.0 | 0.00 | 0.04 | 0.04 | 76 | 1013.8 |
| 20260509163527 | 53 | 100 | 1.0 | 3.0 | 0.01 | 0.04 | 0.04 | 76 | 1013.9 |
| 20260509163027 | 53 | 115 | 1.0 | 4.0 | 0.01 | 0.04 | 0.04 | 75 | 1013.9 |
| 20260509162526 | 53 | 184 | 0.0 | 2.0 | 0.01 | 0.04 | 0.04 | 77 | 1013.8 |
| 20260509162027 | 53 | 109 | 1.0 | 3.0 | 0.01 | 0.04 | 0.04 | 76 | 1013.8 |
| 20260509161547 | 52 | 135 | 1.0 | 4.0 | 0.01 | 0.04 | 0.04 | 77 | 1013.8 |
| 20260509161028 | 52 | 129 | 1.0 | 4.0 | 0.01 | 0.04 | 0.04 | 77 | 1013.9 |
| 20260509160528 | 52 | 122 | 0.0 | 2.0 | 0.01 | 0.04 | 0.04 | 79 | 1014.0 |
| 20260509160028 | 51 | 134 | 0.0 | 2.0 | 0.01 | 0.04 | 0.04 | 80 | 1014.1 |
| 20260509155528 | 51 | 114 | 1.0 | 6.0 | 0.01 | 0.04 | 0.04 | 81 | 1014.0 |
| 20260509155028 | 51 | 75 | 1.0 | 4.0 | 0.01 | 0.03 | 0.03 | 83 | 1013.8 |
| 20260509154527 | 51 | 63 | 0.0 | 3.0 | 0.01 | 0.03 | 0.03 | 82 | 1014.0 |
| 20260509154027 | 51 | 80 | 1.0 | 6.0 | 0.01 | 0.03 | 0.03 | 82 | 1014.0 |
| 20260509153527 | 51 | 81 | 2.0 | 6.0 | 0.00 | 0.03 | 0.03 | 83 | 1014.0 |
| 20260509153027 | 51 | 85 | 1.0 | 6.0 | 0.00 | 0.03 | 0.03 | 86 | 1014.0 |
| 20260509152527 | 50 | 90 | 0.0 | 2.0 | 0.01 | 0.03 | 0.03 | 88 | 1014.1 |
| 20260509152029 | 50 | 80 | 0.0 | 1.0 | 0.01 | 0.03 | 0.03 | 87 | 1014.3 |
| 20260509151529 | 50 | 80 | 0.0 | 2.0 | 0.01 | 0.03 | 0.03 | 89 | 1014.4 |
| 20260509151029 | 49 | 90 | 0.0 | 1.0 | 0.01 | 0.03 | 0.03 | 90 | 1014.4 |
| 20260509150528 | 49 | 90 | 0.0 | 1.0 | 0.01 | 0.03 | 0.03 | 91 | 1014.3 |
| 20260509150028 | 49 | 90 | 0.0 | 1.0 | 0.01 | 0.03 | 0.03 | 90 | 1014.4 |
| 20260509145548 | 49 | 90 | 0.0 | 1.0 | 0.01 | 0.03 | 0.03 | 90 | 1014.5 |
| 20260509145028 | 49 | 90 | 0.0 | 1.0 | 0.01 | 0.03 | 0.03 | 88 | 1014.7 |
| 20260509144528 | 49 | 108 | 0.0 | 2.0 | 0.01 | 0.03 | 0.03 | 89 | 1014.8 |
| 20260509144028 | 48 | 0.0 | 0.0 | 0.01 | 0.03 | 0.03 | 89 | 1015.0 | |
| 20260509143528 | 48 | 0.0 | 0.0 | 0.01 | 0.03 | 0.03 | 88 | 1014.9 | |
| 20260509143027 | 48 | 0.0 | 0.0 | 0.01 | 0.03 | 0.03 | 87 | 1015.0 | |
| 20260509142527 | 48 | 0.0 | 0.0 | 0.01 | 0.02 | 0.02 | 85 | 1015.0 | |
| 20260509142028 | 48 | 0.0 | 0.0 | 0.01 | 0.02 | 0.02 | 86 | 1015.1 | |
| 20260509141527 | 48 | 0.0 | 0.0 | 0.01 | 0.02 | 0.02 | 88 | 1015.1 | |
| 20260509141027 | 48 | 0.0 | 1.0 | 0.01 | 0.02 | 0.02 | 85 | 1015.2 | |
| 20260509140529 | 47 | 130 | 0.0 | 2.0 | 0.01 | 0.02 | 0.02 | 86 | 1015.1 |
| 20260509140029 | 47 | 186 | 0.0 | 2.0 | 0.01 | 0.02 | 0.02 | 87 | 1015.3 |
| 20260509135529 | 47 | 180 | 1.0 | 3.0 | 0.01 | 0.02 | 0.02 | 89 | 1015.2 |
| 20260509135028 | 47 | 199 | 0.0 | 1.0 | 0.01 | 0.02 | 0.02 | 90 | 1015.2 |
| 20260509134528 | 47 | 200 | 0.0 | 2.0 | 0.01 | 0.02 | 0.02 | 91 | 1015.1 |
| 20260509134028 | 47 | 199 | 0.0 | 2.0 | 0.01 | 0.02 | 0.02 | 91 | 1015.2 |
| 20260509133528 | 46 | 0.0 | 0.0 | 0.01 | 0.02 | 0.02 | 90 | 1015.0 | |
| 20260509133028 | 47 | 0.0 | 0.0 | 0.01 | 0.01 | 0.01 | 91 | 1015.0 | |
| 20260509132548 | 46 | 0.0 | 0.0 | 0.01 | 0.01 | 0.01 | 91 | 1014.9 | |
| 20260509132028 | 46 | 0.0 | 0.0 | 0.01 | 0.01 | 0.01 | 92 | 1014.9 | |
| 20260509131527 | 46 | 0.0 | 0.0 | 0.00 | 0.01 | 0.01 | 93 | 1014.8 | |
| 20260509131047 | 46 | 0.0 | 0.0 | 0.00 | 0.01 | 0.01 | 94 | 1014.8 | |
| 20260509130527 | 46 | 0.0 | 0.0 | 0.01 | 0.01 | 0.01 | 94 | 1014.9 | |
| 20260509130047 | 45 | 0.0 | 0.0 | 0.01 | 0.01 | 0.01 | 94 | 1014.9 | |
| 20260509125529 | 45 | 0.0 | 0.0 | 0.01 | 0.01 | 0.01 | 94 | 1014.9 | |
| 20260509125029 | 45 | 0.0 | 0.0 | 0.01 | 0.01 | 0.01 | 94 | 1015.0 | |
| 20260509124529 | 45 | 0.0 | 0.0 | 0.01 | 0.01 | 0.01 | 94 | 1015.1 | |
| 20260509124028 | 45 | 0.0 | 0.0 | 0.01 | 0.01 | 0.01 | 94 | 1015.1 | |
| 20260509123528 | 45 | 0.0 | 0.0 | 0.01 | 0.01 | 0.01 | 93 | 1015.1 | |
| 20260509123029 | 45 | 0.0 | 0.0 | 0.01 | 0.01 | 0.01 | 92 | 1015.2 | |
| 20260509122528 | 45 | 0.0 | 0.0 | 0.01 | 0.01 | 0.01 | 92 | 1015.2 | |
| 20260509122028 | 44 | 0.0 | 0.0 | 0.01 | 0.01 | 0.01 | 91 | 1015.2 | |
| 20260509121528 | 44 | 0.0 | 0.0 | 0.01 | 0.01 | 0.01 | 91 | 1015.3 | |
| 20260509121049 | 44 | 0.0 | 0.0 | 0.01 | 0.01 | 0.01 | 90 | 1015.6 | |
| 20260509120527 | 44 | 210 | 0.0 | 1.0 | 0.00 | 0.00 | 0.00 | 89 | 1015.5 |
| 20260509120027 | 44 | 204 | 0.0 | 1.0 | 0.00 | 0.00 | 0.00 | 88 | 1015.4 |
| 20260509115527 | 44 | 0.0 | 0.0 | 0.00 | 0.00 | 0.00 | 88 | 1015.3 | |
| 20260509115027 | 44 | 93 | 0.0 | 2.0 | 0.00 | 0.00 | 0.00 | 88 | 1015.5 |
| 20260509114547 | 44 | 170 | 0.0 | 2.0 | 0.00 | 0.00 | 0.00 | 87 | 1015.5 |
| 20260509114029 | 44 | 212 | 1.0 | 2.0 | 0.00 | 0.00 | 0.00 | 86 | 1015.5 |
| 20260509113549 | 44 | 0.0 | 0.0 | 0.00 | 0.00 | 0.00 | 84 | 1015.3 | |
| 20260509113049 | 44 | 24 | 0.0 | 1.0 | 0.00 | 0.00 | 0.00 | 85 | 1015.4 |
| 20260509112528 | 43 | 0.0 | 0.0 | 0.00 | 0.00 | 0.00 | 86 | 1015.4 | |
| 20260509112049 | 43 | 19 | 0.0 | 1.0 | 0.00 | 0.00 | 0.00 | 88 | 1015.5 |
| 20260509111528 | 42 | 0.0 | 0.0 | 0.00 | 0.00 | 0.00 | 88 | 1015.4 | |
| 20260509111028 | 42 | 0.0 | 0.0 | 0.00 | 0.00 | 0.00 | 88 | 1015.2 | |
| 20260509110528 | 41 | 0.0 | 0.0 | 0.00 | 0.00 | 0.00 | 88 | 1015.3 | |
| 20260509110028 | 41 | 0.0 | 0.0 | 0.00 | 0.00 | 0.00 | 89 | 1015.3 | |
| 20260509105528 | 41 | 0.0 | 0.0 | 0.00 | 0.00 | 0.00 | 90 | 1015.3 | |
| 20260509105029 | 40 | 0.0 | 0.0 | 0.00 | 0.00 | 0.00 | 91 | 1015.3 | |
| 20260509104529 | 40 | 0.0 | 0.0 | 0.00 | 0.00 | 0.00 | 91 | 1015.4 | |
| 20260509104028 | 40 | 0.0 | 0.0 | 0.00 | 0.00 | 0.00 | 92 | 1015.3 | |
| 20260509103528 | 39 | 0.0 | 0.0 | 0.00 | 0.00 | 0.00 | 92 | 1015.3 | |
| 20260509103028 | 39 | 0.0 | 0.0 | 0.00 | 0.00 | 0.00 | 93 | 1015.2 | |
| 20260509102528 | 39 | 0.0 | 0.0 | 0.00 | 0.00 | 0.00 | 94 | 1015.1 | |
| 20260509102028 | 38 | 0.0 | 0.0 | 0.00 | 0.00 | 0.00 | 94 | 1015.0 | |
| 20260509101528 | 38 | 0.0 | 0.0 | 0.00 | 0.00 | 0.00 | 94 | 1014.9 | |
| 20260509101028 | 37 | 0.0 | 0.0 | 0.00 | 0.00 | 0.00 | 94 | 1015.0 | |
| 20260509100527 | 37 | 0.0 | 0.0 | 0.00 | 0.00 | 0.00 | 94 | 1014.8 | |
| 20260509100027 | 37 | 0.0 | 0.0 | 0.00 | 0.00 | 0.00 | 94 | 1014.7 | |
| 20260509095527 | 37 | 0.0 | 0.0 | 0.00 | 0.00 | 0.00 | 94 | 1014.7 | |
| 20260509095027 | 37 | 0.0 | 0.0 | 0.00 | 0.00 | 0.00 | 94 | 1014.5 | |
| 20260509094547 | 37 | 0.0 | 0.0 | 0.00 | 0.00 | 0.00 | 94 | 1014.5 | |
| 20260509094049 | 37 | 0.0 | 0.0 | 0.00 | 0.00 | 0.00 | 94 | 1014.5 | |
| 20260509093529 | 37 | 0.0 | 0.0 | 0.00 | 0.00 | 0.00 | 94 | 1014.5 | |
| 20260509093029 | 36 | 0.0 | 0.0 | 0.00 | 0.00 | 0.00 | 95 | 1014.5 | |
| 20260509092528 | 36 | 0.0 | 0.0 | 0.00 | 0.00 | 0.00 | 95 | 1014.4 | |
| 20260509092028 | 36 | 0.0 | 0.0 | 0.00 | 0.00 | 0.00 | 95 | 1014.4 | |
| 20260509091528 | 36 | 0.0 | 0.0 | 0.00 | 0.00 | 0.00 | 95 | 1014.4 | |
| 20260509091028 | 36 | 0.0 | 0.0 | 0.00 | 0.00 | 0.00 | 95 | 1014.4 | |
| 20260509090548 | 36 | 0.0 | 0.0 | 0.00 | 0.00 | 0.00 | 95 | 1014.4 | |
| 20260509090028 | 36 | 0.0 | 0.0 | 0.00 | 0.00 | 0.00 | 94 | 1014.3 | |
| 20260509085528 | 36 | 0.0 | 0.0 | 0.00 | 0.00 | 0.00 | 94 | 1014.2 | |
| 20260509085028 | 36 | 0.0 | 0.0 | 0.00 | 0.00 | 0.00 | 94 | 1014.3 | |
| 20260509084527 | 36 | 0.0 | 0.0 | 0.00 | 0.00 | 0.00 | 94 | 1014.3 | |
| 20260509084027 | 36 | 0.0 | 0.0 | 0.00 | 0.00 | 0.00 | 94 | 1014.1 | |
| 20260509083527 | 36 | 0.0 | 0.0 | 0.00 | 0.00 | 0.00 | 94 | 1014.2 | |
| 20260509083027 | 36 | 0.0 | 0.0 | 0.00 | 0.00 | 0.00 | 94 | 1014.2 | |
| 20260509082549 | 36 | 0.0 | 0.0 | 0.00 | 0.00 | 0.00 | 93 | 1014.2 | |
| 20260509082049 | 36 | 0.0 | 0.0 | 0.00 | 0.00 | 0.00 | 92 | 1014.3 | |
| 20260509081548 | 36 | 0.0 | 0.0 | 0.00 | 0.00 | 0.00 | 92 | 1014.2 | |
| 20260509081029 | 36 | 0.0 | 0.0 | 0.00 | 0.00 | 0.00 | 92 | 1014.2 | |
| 20260509080528 | 36 | 0.0 | 0.0 | 0.00 | 0.00 | 0.00 | 92 | 1014.2 | |
| 20260509080049 | 37 | 0.0 | 0.0 | 0.00 | 0.00 | 0.00 | 92 | 1014.2 | |
| 20260509075528 | 37 | 0.0 | 0.0 | 0.00 | 0.00 | 0.00 | 92 | 1014.3 | |
| 20260509075029 | 37 | 0.0 | 0.0 | 0.00 | 0.00 | 0.00 | 91 | 1014.2 | |
| 20260509074528 | 37 | 0.0 | 0.0 | 0.00 | 0.00 | 0.00 | 90 | 1014.5 | |
| 20260509074028 | 37 | 0.0 | 0.0 | 0.00 | 0.00 | 0.00 | 90 | 1014.4 | |
| 20260509073548 | 37 | 0.0 | 0.0 | 0.00 | 0.00 | 0.00 | 90 | 1014.4 | |
| 20260509073027 | 37 | 0.0 | 0.0 | 0.00 | 0.00 | 0.00 | 90 | 1014.4 | |
| 20260509072527 | 38 | 0.0 | 0.0 | 0.00 | 0.00 | 0.00 | 90 | 1014.5 | |
| 20260509072048 | 38 | 0.0 | 0.0 | 0.00 | 0.00 | 0.00 | 90 | 1014.3 | |
| 20260509071547 | 38 | 0.0 | 0.0 | 0.00 | 0.00 | 0.00 | 89 | 1014.4 | |
| 20260509071027 | 38 | 16 | 0.0 | 1.0 | 0.00 | 0.00 | 0.00 | 89 | 1014.3 |
| 20260509070528 | 38 | 16 | 0.0 | 1.0 | 0.00 | 0.00 | 0.00 | 89 | 1014.2 |
| 20260509070028 | 38 | 0.0 | 0.0 | 0.00 | 0.00 | 0.00 | 89 | 1014.1 | |
| 20260509065548 | 38 | 0.0 | 0.0 | 0.00 | 0.00 | 0.00 | 89 | 1013.9 | |
| 20260509065028 | 38 | 0.0 | 0.0 | 0.00 | 0.00 | 0.00 | 89 | 1014.0 | |
| 20260509064528 | 38 | 0.0 | 0.0 | 0.00 | 0.00 | 0.00 | 89 | 1014.0 | |
| 20260509064028 | 38 | 0.0 | 0.0 | 0.00 | 0.00 | 0.00 | 89 | 1014.1 | |
| 20260509063527 | 38 | 0.0 | 0.0 | 0.00 | 0.00 | 0.00 | 88 | 1014.2 | |
| 20260509063028 | 38 | 0.0 | 0.0 | 0.00 | 0.00 | 0.00 | 89 | 1014.1 | |
| 20260509062548 | 38 | 0.0 | 0.0 | 0.00 | 0.00 | 0.00 | 89 | 1014.0 | |
| 20260509062027 | 38 | 0.0 | 0.0 | 0.00 | 0.00 | 0.00 | 88 | 1014.0 | |
| 20260509061527 | 38 | 0.0 | 0.0 | 0.00 | 0.00 | 0.00 | 88 | 1014.0 | |
| 20260509061047 | 38 | 0.0 | 0.0 | 0.00 | 0.00 | 0.00 | 88 | 1014.0 | |
| 20260509060527 | 38 | 0.0 | 0.0 | 0.00 | 0.00 | 0.00 | 88 | 1013.8 | |
| 20260509060029 | 38 | 0.0 | 0.0 | 0.00 | 0.00 | 0.00 | 88 | 1013.9 | |
| 20260509055529 | 38 | 0.0 | 0.0 | 0.00 | 0.00 | 0.00 | 88 | 1013.9 | |
| 20260509055029 | 39 | 0.0 | 0.0 | 0.00 | 0.00 | 0.00 | 87 | 1014.1 | |
| 20260509054528 | 38 | 0.0 | 0.0 | 0.00 | 0.00 | 0.00 | 88 | 1014.1 | |
| 20260509054028 | 38 | 0.0 | 0.0 | 0.00 | 0.00 | 0.00 | 88 | 1014.1 | |
| 20260509053528 | 38 | 0.0 | 0.0 | 0.00 | 0.00 | 0.00 | 88 | 1014.1 | |
| 20260509053028 | 39 | 0.0 | 0.0 | 0.00 | 0.00 | 0.00 | 87 | 1014.1 | |
| 20260509052528 | 39 | 0.0 | 0.0 | 0.00 | 0.00 | 0.00 | 87 | 1014.1 | |
| 20260509052048 | 39 | 0.0 | 0.0 | 0.00 | 0.00 | 0.00 | 88 | 1014.1 | |
| 20260509051527 | 39 | 0.0 | 0.0 | 0.00 | 0.00 | 0.00 | 86 | 1014.0 | |
| 20260509051049 | 39 | 0.0 | 0.0 | 0.00 | 0.00 | 0.00 | 85 | 1013.9 | |
| 20260509050527 | 39 | 0.0 | 0.0 | 0.00 | 0.00 | 0.00 | 85 | 1013.9 | |
| 20260509050028 | 39 | 0.0 | 0.0 | 0.00 | 0.00 | 0.00 | 84 | 1014.0 | |
| 20260509045528 | 40 | 0.0 | 0.0 | 0.00 | 0.00 | 0.00 | 85 | 1013.9 | |
| 20260509045028 | 40 | 0.0 | 0.0 | 0.00 | 0.00 | 0.00 | 84 | 1013.9 | |
| 20260509044548 | 40 | 0.0 | 0.0 | 0.00 | 0.00 | 0.00 | 85 | 1013.9 | |
| 20260509044028 | 40 | 0.0 | 0.0 | 0.00 | 0.00 | 0.00 | 84 | 1013.9 | |
| 20260509043528 | 40 | 0.0 | 0.0 | 0.00 | 0.00 | 0.00 | 84 | 1013.9 | |
| 20260509043028 | 40 | 0.0 | 0.0 | 0.00 | 0.00 | 0.00 | 84 | 1013.9 | |
| 20260509042528 | 40 | 0.0 | 0.0 | 0.00 | 0.00 | 0.00 | 83 | 1013.9 | |
| 20260509042048 | 40 | 0.0 | 0.0 | 0.00 | 0.00 | 0.00 | 82 | 1013.8 | |
| 20260509041529 | 41 | 0.0 | 0.0 | 0.00 | 0.00 | 0.00 | 83 | 1013.7 | |
| 20260509041027 | 41 | 0.0 | 0.0 | 0.00 | 0.00 | 0.00 | 81 | 1013.6 | |
| 20260509040527 | 41 | 0.0 | 0.0 | 0.00 | 0.00 | 0.00 | 80 | 1013.6 | |
| 20260509040027 | 41 | 0.0 | 0.0 | 0.00 | 0.00 | 0.00 | 79 | 1013.6 | |
| 20260509035527 | 41 | 0.0 | 0.0 | 0.00 | 0.00 | 0.00 | 79 | 1013.6 | |
| 20260509035029 | 41 | 0.0 | 0.0 | 0.00 | 0.00 | 0.00 | 78 | 1013.5 | |
| 20260509034549 | 42 | 0.0 | 0.0 | 0.00 | 0.00 | 0.00 | 77 | 1013.5 | |
| 20260509034029 | 42 | 0.0 | 0.0 | 0.00 | 0.00 | 0.00 | 76 | 1013.6 | |
| 20260509033528 | 42 | 0.0 | 0.0 | 0.00 | 0.00 | 0.00 | 77 | 1013.6 | |
| 20260509033048 | 42 | 0.0 | 0.0 | 0.00 | 0.00 | 0.00 | 76 | 1013.5 | |
| 20260509032528 | 42 | 0.0 | 0.0 | 0.00 | 0.00 | 0.00 | 76 | 1013.5 | |
| 20260509032048 | 42 | 0.0 | 0.0 | 0.00 | 0.00 | 0.00 | 76 | 1013.5 | |
| 20260509031528 | 42 | 0.0 | 0.0 | 0.00 | 0.00 | 0.00 | 76 | 1013.4 | |
| 20260509031028 | 42 | 0.0 | 0.0 | 0.00 | 0.00 | 0.00 | 76 | 1013.4 | |
| 20260509030528 | 43 | 0.0 | 0.0 | 0.00 | 0.00 | 0.00 | 74 | 1013.4 | |
| 20260509030048 | 43 | 0.0 | 0.0 | 0.00 | 0.00 | 0.00 | 74 | 1013.3 | |
| 20260509025527 | 43 | 0.0 | 0.0 | 0.00 | 0.00 | 0.00 | 74 | 1013.4 | |
| 20260509025027 | 43 | 0.0 | 0.0 | 0.00 | 0.00 | 0.00 | 73 | 1013.4 | |
| 20260509024527 | 43 | 0.0 | 0.0 | 0.00 | 0.00 | 0.00 | 73 | 1013.3 | |
| 20260509024047 | 44 | 0.0 | 0.0 | 0.00 | 0.00 | 0.00 | 72 | 1013.3 | |
| 20260509023529 | 44 | 0.0 | 0.0 | 0.00 | 0.00 | 0.00 | 73 | 1013.3 | |
| 20260509023029 | 44 | 0.0 | 0.0 | 0.00 | 0.00 | 0.00 | 73 | 1013.4 | |
| 20260509022549 | 44 | 0.0 | 0.0 | 0.00 | 0.00 | 0.00 | 71 | 1013.3 | |
| 20260509022029 | 45 | 0.0 | 0.0 | 0.00 | 0.00 | 0.00 | 71 | 1013.2 | |
| 20260509021528 | 45 | 0.0 | 0.0 | 0.00 | 0.00 | 0.00 | 70 | 1013.1 | |
| 20260509021048 | 46 | 0.0 | 0.0 | 0.00 | 0.00 | 0.00 | 70 | 1013.0 | |
| 20260509020528 | 46 | 0.0 | 0.0 | 0.00 | 0.00 | 0.00 | 69 | 1012.9 | |
| 20260509020028 | 46 | 0.0 | 0.0 | 0.00 | 0.00 | 0.00 | 68 | 1012.8 | |
| 20260509015528 | 47 | 0.0 | 0.0 | 0.00 | 0.00 | 0.00 | 65 | 1012.8 | |
| 20260509015028 | 47 | 0.0 | 0.0 | 0.00 | 0.00 | 0.00 | 61 | 1012.7 | |
| 20260509014528 | 47 | 0.0 | 0.0 | 0.00 | 0.00 | 0.00 | 62 | 1012.8 | |
| 20260509014027 | 48 | 0.0 | 0.0 | 0.00 | 0.00 | 0.00 | 62 | 1012.6 | |
| 20260509013527 | 48 | 0.0 | 0.0 | 0.00 | 0.00 | 0.00 | 60 | 1012.6 | |
| 20260509013027 | 48 | 0.0 | 0.0 | 0.00 | 0.00 | 0.00 | 61 | 1012.4 | |
| 20260509012547 | 48 | 16 | 0.0 | 1.0 | 0.00 | 0.00 | 0.00 | 63 | 1012.3 |
| 20260509012027 | 49 | 0.0 | 0.0 | 0.00 | 0.00 | 0.00 | 62 | 1012.1 | |
| 20260509011529 | 49 | 0.0 | 0.0 | 0.00 | 0.00 | 0.00 | 61 | 1012.0 | |
| 20260509011029 | 49 | 0.0 | 0.0 | 0.00 | 0.00 | 0.00 | 61 | 1011.9 | |
| 20260509010609 | 49 | 0.0 | 0.0 | 0.00 | 0.00 | 0.00 | 61 | 1011.8 | |
| 20260509010049 | 49 | 0.0 | 0.0 | 0.00 | 0.00 | 0.00 | 60 | 1011.8 | |
| 20260509005528 | 49 | 0.0 | 0.0 | 0.00 | 0.00 | 0.00 | 60 | 1011.7 | |
| 20260509005028 | 49 | 0.0 | 1.0 | 0.00 | 0.00 | 0.00 | 60 | 1011.5 | |
| 20260509004528 | 49 | 16 | 0.0 | 1.0 | 0.00 | 0.00 | 0.00 | 60 | 1011.3 |
| 20260509004028 | 49 | 0.0 | 0.0 | 0.00 | 0.00 | 0.00 | 60 | 1011.2 | |
| 20260509003528 | 50 | 0.0 | 0.0 | 0.00 | 0.00 | 0.00 | 58 | 1011.1 | |
| 20260509003048 | 50 | 0.0 | 0.0 | 0.00 | 0.00 | 0.00 | 57 | 1011.1 | |
| 20260509002527 | 50 | 0.0 | 0.0 | 0.00 | 0.00 | 0.00 | 56 | 1010.8 | |
| 20260509002027 | 51 | 0.0 | 0.0 | 0.00 | 0.00 | 0.00 | 54 | 1010.7 | |
| 20260509001527 | 51 | 0.0 | 0.0 | 0.00 | 0.00 | 0.00 | 54 | 1010.6 | |
| 20260509001047 | 52 | 0.0 | 0.0 | 0.00 | 0.00 | 0.00 | 53 | 1010.6 | |
| 20260509000527 | 52 | 16 | 0.0 | 1.0 | 0.00 | 0.00 | 0.00 | 50 | 1010.5 |
| 20260509000029 | 53 | 43 | 0.0 | 1.0 | 0.00 | 0.00 | 0.00 | 48 | 1010.5 |
| 20260508235549 | 53 | 43 | 0.0 | 2.0 | 0.00 | 0.00 | 0.00 | 46 | 1010.3 |
| 20260508235029 | 53 | 94 | 0.0 | 2.0 | 0.00 | 0.00 | 0.00 | 46 | 1010.3 |
| 20260508234528 | 53 | 103 | 0.0 | 1.0 | 0.00 | 0.00 | 0.00 | 46 | 1010.1 |
| 20260508234028 | 54 | 0.0 | 2.0 | 0.00 | 0.00 | 0.00 | 46 | 1010.0 | |
| 20260508233528 | 54 | 173 | 0.0 | 2.0 | 0.00 | 0.00 | 0.00 | 45 | 1010.0 |
| 20260508233028 | 55 | 309 | 0.0 | 7.0 | 0.00 | 0.00 | 0.00 | 44 | 1009.9 |
| 20260508232528 | 55 | 212 | 1.0 | 8.0 | 0.00 | 0.00 | 0.00 | 43 | 1009.9 |
| 20260508232028 | 55 | 181 | 1.0 | 2.0 | 0.00 | 0.00 | 0.00 | 43 | 1009.8 |
| 20260508231527 | 55 | 134 | 1.0 | 3.0 | 0.00 | 0.00 | 0.00 | 43 | 1009.7 |
| 20260508231027 | 55 | 358 | 0.0 | 2.0 | 0.00 | 0.00 | 0.00 | 43 | 1009.7 |
| 20260508230527 | 55 | 290 | 1.0 | 2.0 | 0.00 | 0.00 | 0.00 | 44 | 1009.7 |
| 20260508230027 | 55 | 278 | 0.0 | 2.0 | 0.00 | 0.00 | 0.00 | 42 | 1009.7 |
| 20260508225527 | 55 | 44 | 1.0 | 3.0 | 0.00 | 0.00 | 0.00 | 42 | 1009.5 |
| 20260508225027 | 56 | 28 | 1.0 | 4.0 | 0.00 | 0.00 | 0.00 | 41 | 1009.4 |
| 20260508224529 | 56 | 197 | 1.0 | 6.0 | 0.00 | 0.00 | 0.00 | 40 | 1009.4 |
| 20260508224049 | 56 | 348 | 1.0 | 3.0 | 0.00 | 0.00 | 0.00 | 40 | 1009.4 |
| 20260508223528 | 56 | 169 | 1.0 | 3.0 | 0.00 | 0.00 | 0.00 | 40 | 1009.4 |
| 20260508223053 | 56 | 231 | 0.0 | 2.0 | 0.00 | 0.00 | 0.00 | 39 | 1009.4 |
| 20260508222528 | 57 | 22 | 0.0 | 2.0 | 0.00 | 0.00 | 0.00 | 36 | 1009.4 |
| 20260508222028 | 57 | 31 | 0.0 | 2.0 | 0.00 | 0.00 | 0.00 | 32 | 1009.3 |
| 20260508221528 | 57 | 9 | 1.0 | 4.0 | 0.00 | 0.00 | 0.00 | 33 | 1009.4 |
| 20260508221108 | 58 | 286 | 1.0 | 4.0 | 0.00 | 0.00 | 0.00 | 33 | 1009.4 |
| 20260508220528 | 58 | 23 | 2.0 | 7.0 | 0.00 | 0.00 | 0.00 | 33 | 1009.4 |
| 20260508220028 | 58 | 351 | 1.0 | 6.0 | 0.00 | 0.00 | 0.00 | 33 | 1009.3 |
| 20260508215527 | 58 | 356 | 1.0 | 8.0 | 0.00 | 0.00 | 0.00 | 33 | 1009.3 |
| 20260508215027 | 58 | 302 | 1.0 | 8.0 | 0.00 | 0.00 | 0.00 | 34 | 1009.3 |
| 20260508214527 | 58 | 25 | 1.0 | 3.0 | 0.00 | 0.00 | 0.00 | 34 | 1009.1 |
| 20260508214027 | 58 | 343 | 1.0 | 4.0 | 0.00 | 0.00 | 0.00 | 34 | 1009.1 |
| 20260508213526 | 58 | 9 | 2.0 | 6.0 | 0.00 | 0.00 | 0.00 | 34 | 1009.1 |
| 20260508213029 | 58 | 10 | 2.0 | 6.0 | 0.00 | 0.00 | 0.00 | 34 | 1009.1 |
| 20260508212529 | 58 | 36 | 1.0 | 4.0 | 0.00 | 0.00 | 0.00 | 34 | 1009.0 |
| 20260508212029 | 58 | 14 | 2.0 | 6.0 | 0.00 | 0.00 | 0.00 | 34 | 1009.1 |
| 20260508211548 | 58 | 344 | 2.0 | 6.0 | 0.00 | 0.00 | 0.00 | 35 | 1009.1 |
| 20260508211028 | 58 | 34 | 1.0 | 3.0 | 0.00 | 0.00 | 0.00 | 35 | 1009.0 |
| 20260508210548 | 58 | 33 | 2.0 | 7.0 | 0.00 | 0.00 | 0.00 | 35 | 1009.1 |
| 20260508210028 | 58 | 195 | 2.0 | 4.0 | 0.00 | 0.00 | 0.00 | 35 | 1009.0 |
| 20260508205528 | 58 | 353 | 1.0 | 2.0 | 0.00 | 0.00 | 0.00 | 37 | 1009.0 |
| 20260508205028 | 58 | 6 | 1.0 | 3.0 | 0.00 | 0.00 | 0.00 | 37 | 1009.0 |
| 20260508204528 | 58 | 330 | 1.0 | 4.0 | 0.00 | 0.00 | 0.00 | 35 | 1008.9 |
| 20260508204027 | 58 | 12 | 2.0 | 4.0 | 0.00 | 0.00 | 0.00 | 35 | 1008.9 |
| 20260508203527 | 58 | 337 | 1.0 | 3.0 | 0.00 | 0.00 | 0.00 | 35 | 1008.9 |
| 20260508203027 | 58 | 6 | 2.0 | 7.0 | 0.00 | 0.00 | 0.00 | 37 | 1009.0 |
| 20260508202527 | 58 | 17 | 2.0 | 4.0 | 0.00 | 0.00 | 0.00 | 36 | 1008.9 |
| 20260508202027 | 59 | 349 | 1.0 | 4.0 | 0.00 | 0.00 | 0.00 | 36 | 1008.9 |
| 20260508201527 | 60 | 23 | 2.0 | 7.0 | 0.00 | 0.00 | 0.00 | 33 | 1008.9 |
| 20260508201027 | 60 | 37 | 2.0 | 6.0 | 0.00 | 0.00 | 0.00 | 36 | 1008.9 |
| 20260508200527 | 60 | 39 | 2.0 | 6.0 | 0.00 | 0.00 | 0.00 | 35 | 1008.7 |
| 20260508200027 | 60 | 6 | 3.0 | 6.0 | 0.00 | 0.00 | 0.00 | 35 | 1008.8 |
| 20260508195527 | 60 | 3 | 2.0 | 6.0 | 0.00 | 0.00 | 0.00 | 35 | 1008.7 |
| 20260508195028 | 59 | 16 | 2.0 | 4.0 | 0.00 | 0.00 | 0.00 | 36 | 1008.6 |
| 20260508194528 | 60 | 354 | 2.0 | 4.0 | 0.00 | 0.00 | 0.00 | 34 | 1008.6 |
| 20260508194030 | 60 | 28 | 2.0 | 4.0 | 0.00 | 0.00 | 0.00 | 34 | 1008.5 |
| 20260508193548 | 59 | 350 | 2.0 | 6.0 | 0.00 | 0.00 | 0.00 | 35 | 1008.6 |
| 20260508193028 | 59 | 5 | 1.0 | 3.0 | 0.00 | 0.00 | 0.00 | 34 | 1008.6 |
| 20260508192528 | 58 | 302 | 2.0 | 6.0 | 0.00 | 0.00 | 0.00 | 34 | 1008.6 |
| 20260508192028 | 59 | 332 | 2.0 | 4.0 | 0.00 | 0.00 | 0.00 | 32 | 1008.7 |
| 20260508191528 | 59 | 326 | 2.0 | 7.0 | 0.00 | 0.00 | 0.00 | 34 | 1008.6 |
| 20260508191027 | 60 | 355 | 3.0 | 8.0 | 0.00 | 0.00 | 0.00 | 31 | 1008.6 |
| 20260508190527 | 59 | 18 | 2.0 | 7.0 | 0.00 | 0.00 | 0.00 | 33 | 1008.5 |
| 20260508190027 | 59 | 4 | 2.0 | 6.0 | 0.00 | 0.00 | 0.00 | 32 | 1008.6 |
| 20260508185528 | 59 | 30 | 2.0 | 6.0 | 0.00 | 0.00 | 0.00 | 33 | 1008.7 |
| 20260508185028 | 59 | 4 | 1.0 | 9.0 | 0.00 | 0.00 | 0.00 | 32 | 1008.6 |
| 20260508184528 | 59 | 59 | 2.0 | 9.0 | 0.00 | 0.00 | 0.00 | 31 | 1008.6 |
| 20260508184027 | 60 | 21 | 2.0 | 6.0 | 0.00 | 0.00 | 0.00 | 33 | 1008.7 |
| 20260508183527 | 60 | 320 | 2.0 | 9.0 | 0.00 | 0.00 | 0.00 | 32 | 1008.7 |
| 20260508183027 | 60 | 214 | 2.0 | 9.0 | 0.00 | 0.00 | 0.00 | 33 | 1008.7 |
| 20260508182547 | 60 | 347 | 2.0 | 6.0 | 0.00 | 0.00 | 0.00 | 33 | 1008.7 |
| 20260508182027 | 60 | 258 | 2.0 | 4.0 | 0.00 | 0.00 | 0.00 | 35 | 1008.7 |
| 20260508181527 | 59 | 30 | 2.0 | 6.0 | 0.00 | 0.00 | 0.00 | 36 | 1008.7 |
| 20260508181027 | 59 | 5 | 2.0 | 7.0 | 0.00 | 0.00 | 0.00 | 35 | 1008.7 |
| 20260508180529 | 59 | 275 | 2.0 | 10.0 | 0.00 | 0.00 | 0.00 | 35 | 1008.7 |
| 20260508180028 | 59 | 2 | 3.0 | 9.0 | 0.00 | 0.00 | 0.00 | 34 | 1008.7 |
| 20260508175528 | 58 | 35 | 2.0 | 4.0 | 0.00 | 0.00 | 0.00 | 35 | 1008.6 |
| 20260508175028 | 58 | 1 | 2.0 | 8.0 | 0.00 | 0.00 | 0.00 | 35 | 1008.7 |
| 20260508174528 | 59 | 15 | 2.0 | 7.0 | 0.00 | 0.00 | 0.00 | 35 | 1008.7 |
| 20260508174028 | 59 | 354 | 2.0 | 7.0 | 0.00 | 0.00 | 0.00 | 34 | 1008.8 |
| 20260508173528 | 59 | 317 | 2.0 | 9.0 | 0.00 | 0.00 | 0.00 | 35 | 1008.8 |
| 20260508173048 | 60 | 39 | 2.0 | 6.0 | 0.00 | 0.00 | 0.00 | 34 | 1008.8 |
| 20260508172529 | 61 | 350 | 2.0 | 4.0 | 0.00 | 0.00 | 0.00 | 34 | 1008.8 |
| 20260508172048 | 61 | 251 | 2.0 | 6.0 | 0.00 | 0.00 | 0.00 | 35 | 1008.7 |